Time,TemperatureF,DewpointF,PressureIn,WindDirection,WindDirectionDegrees,WindSpeedMPH,WindSpeedGustMPH,Humidity,HourlyPrecipIn,Conditions,Clouds,dailyrainin,SoftwareType,DateUTC
2013-01-25 00:03:00,59.0,54.0,30.26,West,267,0.0,3.0,82,0.00,,,0.00,,2013-01-25 05:03:00,
2013-01-25 00:12:00,58.0,53.0,30.26,West,267,0.0,3.0,84,0.00,,,0.00,,2013-01-25 05:12:00,
2013-01-25 00:22:00,58.0,53.0,30.26,West,267,0.0,3.0,84,0.00,,,0.00,,2013-01-25 05:22:00,
2013-01-25 00:32:00,58.0,53.0,30.26,West,267,0.0,3.0,84,0.00,,,0.00,,2013-01-25 05:32:00,
2013-01-25 00:43:00,58.0,53.0,30.26,West,267,0.0,3.0,84,0.00,,,0.00,,2013-01-25 05:43:00,
2013-01-25 00:52:00,57.0,53.0,30.26,West,267,0.0,2.0,87,0.00,,,0.00,,2013-01-25 05:52:00,
2013-01-25 01:02:00,57.0,53.0,30.26,West,267,0.0,2.0,87,0.00,,,0.00,,2013-01-25 06:02:00,
2013-01-25 01:12:00,57.0,53.0,30.26,West,267,0.0,2.0,87,0.00,,,0.00,,2013-01-25 06:12:00,
2013-01-25 01:21:00,57.0,54.0,30.26,WSW,239,0.0,2.0,89,0.00,,,0.00,,2013-01-25 06:21:00,
2013-01-25 01:32:00,57.0,54.0,30.26,WSW,239,0.0,2.0,89,0.00,,,0.00,,2013-01-25 06:32:00,
2013-01-25 01:42:00,57.0,54.0,30.26,WSW,239,0.0,2.0,89,0.00,,,0.00,,2013-01-25 06:42:00,
2013-01-25 01:52:00,56.0,53.0,30.25,WSW,239,0.0,1.0,91,0.00,,,0.00,,2013-01-25 06:52:00,
2013-01-25 02:02:00,56.0,53.0,30.25,WSW,239,0.0,1.0,91,0.00,,,0.00,,2013-01-25 07:02:00,
2013-01-25 02:11:00,56.0,53.0,30.25,WSW,239,0.0,1.0,91,0.00,,,0.00,,2013-01-25 07:11:00,
2013-01-25 02:22:00,56.0,54.0,30.26,WNW,289,0.0,1.0,92,0.00,,,0.00,,2013-01-25 07:22:00,
2013-01-25 02:32:00,56.0,54.0,30.26,WNW,289,0.0,1.0,92,0.00,,,0.00,,2013-01-25 07:32:00,
2013-01-25 02:42:00,56.0,54.0,30.26,WNW,289,0.0,1.0,92,0.00,,,0.00,,2013-01-25 07:42:00,
2013-01-25 02:52:00,55.0,53.0,30.25,WNW,289,0.0,0.0,93,0.00,,,0.00,,2013-01-25 07:52:00,
2013-01-25 03:00:00,54.0,52.0,30.24,WNW,289,0.0,0.0,93,0.00,,,0.00,,2013-01-25 08:00:00,
2013-01-25 03:02:00,55.0,53.0,30.25,WNW,289,0.0,0.0,93,0.00,,,0.00,,2013-01-25 08:02:00,
2013-01-25 03:12:00,54.0,52.0,30.24,WNW,289,0.0,0.0,93,0.00,,,0.00,,2013-01-25 08:12:00,
2013-01-25 03:21:00,54.0,52.0,30.24,WNW,289,0.0,0.0,93,0.00,,,0.00,,2013-01-25 08:21:00,
2013-01-25 03:32:00,54.0,52.0,30.24,WNW,289,0.0,0.0,93,0.00,,,0.00,,2013-01-25 08:32:00,
2013-01-25 03:42:00,54.0,52.0,30.24,WNW,289,0.0,0.0,93,0.00,,,0.00,,2013-01-25 08:42:00,
2013-01-25 03:52:00,54.0,52.0,30.24,WNW,289,0.0,0.0,93,0.00,,,0.00,,2013-01-25 08:52:00,
2013-01-25 09:23:00,56.0,55.0,30.28,WNW,291,0.0,1.0,97,0.00,,,0.00,,2013-01-25 14:23:00,
2013-01-25 09:33:00,56.0,55.0,30.28,WNW,291,0.0,1.0,97,0.00,,,0.00,,2013-01-25 14:33:00,
2013-01-25 09:42:00,56.0,55.0,30.28,WNW,291,0.0,1.0,97,0.00,,,0.00,,2013-01-25 14:42:00,
2013-01-25 09:53:00,58.0,55.0,30.29,NW,322,0.0,4.0,91,0.00,,,0.00,,2013-01-25 14:53:00,
2013-01-25 10:02:00,58.0,55.0,30.29,NW,322,0.0,4.0,91,0.00,,,0.00,,2013-01-25 15:02:00,
2013-01-25 10:13:00,58.0,55.0,30.29,NW,322,0.0,4.0,91,0.00,,,0.00,,2013-01-25 15:13:00,
2013-01-25 10:22:00,61.0,56.0,30.29,NW,323,0.0,2.0,83,0.00,,,0.00,,2013-01-25 15:22:00,
2013-01-25 10:32:00,61.0,56.0,30.29,NW,323,0.0,2.0,83,0.00,,,0.00,,2013-01-25 15:32:00,
2013-01-25 10:43:00,61.0,56.0,30.29,NW,323,0.0,2.0,83,0.00,,,0.00,,2013-01-25 15:43:00,
2013-01-25 10:53:00,64.0,56.0,30.29,NW,323,0.0,2.0,75,0.00,,,0.00,,2013-01-25 15:53:00,
2013-01-25 11:03:00,64.0,56.0,30.29,NW,323,0.0,2.0,75,0.00,,,0.00,,2013-01-25 16:03:00,
2013-01-25 11:12:00,64.0,56.0,30.29,NW,323,0.0,2.0,75,0.00,,,0.00,,2013-01-25 16:12:00,
2013-01-25 11:23:00,67.0,56.0,30.29,NE,41,0.0,2.0,67,0.00,,,0.00,,2013-01-25 16:23:00,
2013-01-25 11:33:00,67.0,56.0,30.29,NE,41,0.0,2.0,67,0.00,,,0.00,,2013-01-25 16:33:00,
2013-01-25 11:43:00,67.0,56.0,30.29,NE,41,0.0,2.0,67,0.00,,,0.00,,2013-01-25 16:43:00,
2013-01-25 11:53:00,69.0,54.0,30.28,NE,44,0.0,4.0,58,0.00,,,0.00,,2013-01-25 16:53:00,
2013-01-25 12:00:00,70.0,50.0,30.26,NE,56,0.0,5.0,50,0.00,,,0.00,,2013-01-25 17:00:00,
2013-01-25 12:02:00,69.0,54.0,30.28,NE,44,0.0,4.0,58,0.00,,,0.00,,2013-01-25 17:02:00,
2013-01-25 12:12:00,69.0,54.0,30.28,NE,44,0.0,4.0,58,0.00,,,0.00,,2013-01-25 17:12:00,
2013-01-25 12:22:00,70.0,50.0,30.26,NE,56,0.0,5.0,50,0.00,,,0.00,,2013-01-25 17:22:00,
2013-01-25 12:33:00,70.0,50.0,30.26,NE,56,0.0,5.0,50,0.00,,,0.00,,2013-01-25 17:33:00,
2013-01-25 12:43:00,70.0,50.0,30.26,NE,56,0.0,5.0,50,0.00,,,0.00,,2013-01-25 17:43:00,
2013-01-25 12:53:00,70.0,50.0,30.26,NE,56,0.0,5.0,50,0.00,,,0.00,,2013-01-25 17:53:00,
2013-01-25 13:53:00,73.0,51.0,30.21,WNW,289,3.0,6.0,46,0.00,,,0.00,,2013-01-25 18:53:00,
2013-01-25 14:03:00,73.0,51.0,30.21,WNW,289,3.0,6.0,46,0.00,,,0.00,,2013-01-25 19:03:00,
2013-01-25 14:12:00,73.0,51.0,30.21,WNW,289,3.0,6.0,46,0.00,,,0.00,,2013-01-25 19:12:00,
2013-01-25 14:22:00,73.0,53.0,30.19,West,260,1.0,2.0,49,0.00,,,0.00,,2013-01-25 19:22:00,
2013-01-25 14:32:00,73.0,53.0,30.19,West,260,1.0,2.0,49,0.00,,,0.00,,2013-01-25 19:32:00,
2013-01-25 14:42:00,73.0,53.0,30.19,West,260,1.0,2.0,49,0.00,,,0.00,,2013-01-25 19:42:00,
2013-01-25 14:53:00,73.0,50.0,30.18,NE,35,0.0,3.0,45,0.00,,,0.00,,2013-01-25 19:53:00,
2013-01-25 15:03:00,73.0,50.0,30.18,NE,35,0.0,3.0,45,0.00,,,0.00,,2013-01-25 20:03:00,
2013-01-25 15:12:00,73.0,50.0,30.18,NE,35,0.0,3.0,45,0.00,,,0.00,,2013-01-25 20:12:00,
2013-01-25 15:23:00,75.0,50.0,30.17,SE,144,3.0,9.0,42,0.00,,,0.00,,2013-01-25 20:23:00,
2013-01-25 15:32:00,75.0,50.0,30.17,SE,144,3.0,9.0,42,0.00,,,0.00,,2013-01-25 20:32:00,
2013-01-25 15:43:00,75.0,50.0,30.17,SE,144,3.0,9.0,42,0.00,,,0.00,,2013-01-25 20:43:00,
2013-01-25 15:53:00,76.0,51.0,30.15,SW,229,3.0,6.0,42,0.00,,,0.00,,2013-01-25 20:53:00,
2013-01-25 16:00:00,76.0,52.0,30.15,SE,141,2.0,6.0,43,0.00,,,0.00,,2013-01-25 21:00:00,
2013-01-25 16:02:00,76.0,51.0,30.15,SW,229,3.0,6.0,42,0.00,,,0.00,,2013-01-25 21:02:00,
2013-01-25 16:12:00,76.0,51.0,30.15,SW,229,3.0,6.0,42,0.00,,,0.00,,2013-01-25 21:12:00,
2013-01-25 16:23:00,76.0,52.0,30.15,SE,141,2.0,6.0,43,0.00,,,0.00,,2013-01-25 21:23:00,
2013-01-25 16:33:00,76.0,52.0,30.15,SE,141,2.0,6.0,43,0.00,,,0.00,,2013-01-25 21:33:00,
2013-01-25 16:43:00,76.0,52.0,30.15,SE,141,2.0,6.0,43,0.00,,,0.00,,2013-01-25 21:43:00,
2013-01-25 16:52:00,76.0,52.0,30.15,SE,141,2.0,6.0,43,0.00,,,0.00,,2013-01-25 21:52:00,
2013-01-25 23:21:00,57.0,48.0,30.21,SSW,196,0.0,0.0,71,0.00,,,0.00,,2013-01-26 04:21:00,
2013-01-25 23:32:00,57.0,48.0,30.21,SSW,196,0.0,0.0,71,0.00,,,0.00,,2013-01-26 04:32:00,
2013-01-25 23:43:00,57.0,48.0,30.21,SSW,196,0.0,0.0,71,0.00,,,0.00,,2013-01-26 04:43:00,
2013-01-25 23:52:00,57.0,49.0,30.21,SSW,196,0.0,0.0,75,0.00,,,0.00,,2013-01-26 04:52:00,